Wetterdaten: Samstag, 25.02.2023
Datum Zeit Temp. I. Temp. A. Boden 5 cm Feuchte I. Feuchte A. Luftdruck Regen Wind
25.02.2023 00:02 23,0 C 4,7 C 3,1 C 43 % 84 % 1018 hPa 0,3 l/m 9,5 km/h (2 Bft)
25.02.2023 00:05 23,0 C 4,6 C 3,0 C 43 % 85 % 1018 hPa 0,0 l/m 11,1 km/h (2 Bft)
25.02.2023 00:08 23,0 C 4,6 C 3,0 C 43 % 85 % 1018 hPa 0,0 l/m 12,8 km/h (3 Bft)
25.02.2023 00:11 23,0 C 4,5 C 3,0 C 43 % 85 % 1018 hPa 0,0 l/m 13,0 km/h (3 Bft)
25.02.2023 00:14 23,0 C 4,5 C 3,0 C 43 % 85 % 1018 hPa 0,0 l/m 11,4 km/h (2 Bft)
25.02.2023 00:17 23,0 C 4,5 C 2,9 C 43 % 85 % 1018 hPa 0,3 l/m 12,6 km/h (3 Bft)
25.02.2023 00:20 23,0 C 4,5 C 2,9 C 43 % 85 % 1018 hPa 0,0 l/m 12,6 km/h (3 Bft)
25.02.2023 00:23 23,0 C 4,4 C 2,8 C 43 % 85 % 1018 hPa 0,0 l/m 16,2 km/h (3 Bft)
25.02.2023 00:26 23,0 C 4,3 C 2,6 C 43 % 85 % 1018 hPa 0,0 l/m 10,7 km/h (2 Bft)
25.02.2023 00:29 23,0 C 4,3 C 2,6 C 43 % 85 % 1018 hPa 0,0 l/m 15,6 km/h (3 Bft)
25.02.2023 00:32 23,0 C 4,3 C 2,6 C 43 % 85 % 1018 hPa 0,0 l/m 17,2 km/h (3 Bft)
25.02.2023 00:35 23,0 C 4,3 C 2,6 C 43 % 85 % 1018 hPa 0,0 l/m 11,5 km/h (2 Bft)
25.02.2023 00:38 23,0 C 4,2 C 2,6 C 43 % 85 % 1018 hPa 0,0 l/m 12,1 km/h (2 Bft)
25.02.2023 00:41 23,0 C 4,1 C 2,5 C 43 % 85 % 1018 hPa 0,3 l/m 11,7 km/h (2 Bft)
25.02.2023 00:44 23,0 C 4,1 C 2,8 C 43 % 85 % 1018 hPa 0,0 l/m 12,5 km/h (3 Bft)
25.02.2023 00:47 23,0 C 4,1 C 2,8 C 43 % 85 % 1018 hPa 0,3 l/m 8,1 km/h (2 Bft)
25.02.2023 00:50 23,0 C 4,0 C 2,8 C 43 % 85 % 1018 hPa 0,0 l/m 9,6 km/h (2 Bft)
25.02.2023 00:53 23,0 C 4,0 C 2,8 C 43 % 85 % 1018 hPa 0,0 l/m 7,6 km/h (2 Bft)
25.02.2023 00:56 23,0 C 4,0 C 2,8 C 43 % 85 % 1018 hPa 0,0 l/m 9,2 km/h (2 Bft)
25.02.2023 00:59 23,0 C 4,0 C 2,9 C 43 % 85 % 1018 hPa 0,0 l/m 9,4 km/h (2 Bft)
25.02.2023 01:02 23,0 C 4,1 C 2,7 C 43 % 85 % 1018 hPa 0,0 l/m 14,7 km/h (3 Bft)
25.02.2023 01:05 23,0 C 3,9 C 2,7 C 43 % 85 % 1018 hPa 0,0 l/m 21,5 km/h (4 Bft)
25.02.2023 01:08 23,0 C 3,9 C 2,6 C 43 % 85 % 1018 hPa 0,3 l/m 20,3 km/h (4 Bft)
25.02.2023 01:11 23,0 C 3,7 C 2,5 C 43 % 85 % 1018 hPa 0,0 l/m 18,2 km/h (3 Bft)
25.02.2023 01:14 23,0 C 3,7 C 2,6 C 43 % 85 % 1018 hPa 0,0 l/m 15,3 km/h (3 Bft)
25.02.2023 01:17 23,0 C 3,5 C 2,4 C 43 % 85 % 1018 hPa 0,3 l/m 17,6 km/h (3 Bft)
25.02.2023 01:20 23,0 C 3,5 C 2,5 C 43 % 85 % 1018 hPa 0,0 l/m 15,5 km/h (3 Bft)
25.02.2023 01:23 23,0 C 3,4 C 2,5 C 43 % 85 % 1018 hPa 0,0 l/m 11,8 km/h (2 Bft)
25.02.2023 01:26 23,0 C 3,4 C 2,5 C 43 % 85 % 1018 hPa 0,0 l/m 8,9 km/h (2 Bft)
25.02.2023 01:29 23,0 C 3,4 C 2,5 C 43 % 85 % 1018 hPa 0,3 l/m 11,1 km/h (2 Bft)
25.02.2023 01:32 23,0 C 3,4 C 2,4 C 43 % 86 % 1018 hPa 0,0 l/m 11,1 km/h (2 Bft)
25.02.2023 01:35 23,0 C 3,3 C 2,5 C 43 % 86 % 1018 hPa 0,0 l/m 12,3 km/h (3 Bft)
25.02.2023 01:38 23,0 C 3,3 C 2,5 C 43 % 86 % 1018 hPa 0,0 l/m 7,8 km/h (2 Bft)
25.02.2023 01:41 23,0 C 3,3 C 2,6 C 43 % 86 % 1018 hPa 0,0 l/m 7,2 km/h (2 Bft)
25.02.2023 01:44 23,0 C 3,3 C 2,2 C 43 % 86 % 1018 hPa 0,3 l/m 13,3 km/h (3 Bft)
25.02.2023 01:47 23,0 C 3,3 C 2,2 C 43 % 86 % 1018 hPa 0,0 l/m 14,5 km/h (3 Bft)
25.02.2023 01:50 23,0 C 3,3 C 2,3 C 43 % 86 % 1018 hPa 0,0 l/m 10,2 km/h (2 Bft)
25.02.2023 01:53 23,0 C 3,2 C 2,1 C 43 % 86 % 1018 hPa 0,0 l/m 14,3 km/h (3 Bft)
25.02.2023 01:56 23,0 C 3,2 C 2,1 C 43 % 86 % 1018 hPa 0,0 l/m 15,3 km/h (3 Bft)
25.02.2023 01:59 23,0 C 3,1 C 2,1 C 43 % 86 % 1018 hPa 0,0 l/m 12,3 km/h (3 Bft)
25.02.2023 02:02 23,0 C 3,1 C 2,3 C 43 % 86 % 1018 hPa 0,0 l/m 10,5 km/h (2 Bft)
25.02.2023 02:05 23,0 C 3,1 C 2,1 C 43 % 86 % 1018 hPa 0,0 l/m 8,8 km/h (2 Bft)
25.02.2023 02:08 23,0 C 3,1 C 2,3 C 43 % 86 % 1018 hPa 0,0 l/m 12,8 km/h (3 Bft)
25.02.2023 02:11 23,0 C 3,1 C 2,1 C 43 % 86 % 1018 hPa 0,0 l/m 10,7 km/h (2 Bft)
25.02.2023 02:14 23,0 C 3,0 C 1,9 C 43 % 86 % 1018 hPa 0,0 l/m 13,2 km/h (3 Bft)
25.02.2023 02:17 23,0 C 3,0 C 2,1 C 43 % 86 % 1018 hPa 0,0 l/m 7,6 km/h (2 Bft)
25.02.2023 02:20 23,0 C 2,9 C 1,8 C 43 % 86 % 1018 hPa 0,0 l/m 11,8 km/h (2 Bft)
25.02.2023 02:23 23,0 C 2,9 C 1,9 C 43 % 86 % 1018 hPa 0,0 l/m 10,2 km/h (2 Bft)
25.02.2023 02:26 23,0 C 2,9 C 1,9 C 43 % 86 % 1018 hPa 0,0 l/m 10,2 km/h (2 Bft)
25.02.2023 02:29 23,0 C 2,8 C 2,0 C 43 % 86 % 1018 hPa 0,3 l/m 7,9 km/h (2 Bft)
25.02.2023 02:32 23,0 C 2,8 C 1,8 C 43 % 86 % 1018 hPa 0,0 l/m 14,2 km/h (3 Bft)
25.02.2023 02:35 23,0 C 2,8 C 1,9 C 43 % 86 % 1018 hPa 0,0 l/m 12,9 km/h (3 Bft)
25.02.2023 02:38 23,0 C 2,8 C 1,9 C 43 % 86 % 1018 hPa 0,0 l/m 10,3 km/h (2 Bft)
25.02.2023 02:41 23,0 C 2,8 C 1,8 C 43 % 86 % 1018 hPa 0,3 l/m 7,8 km/h (2 Bft)
25.02.2023 02:44 23,0 C 2,8 C 1,9 C 43 % 86 % 1018 hPa 0,0 l/m 12,7 km/h (3 Bft)
25.02.2023 02:47 23,0 C 2,8 C 1,8 C 43 % 86 % 1018 hPa 0,0 l/m 10,5 km/h (2 Bft)
25.02.2023 02:50 23,0 C 2,7 C 1,4 C 43 % 86 % 1018 hPa 0,0 l/m 13,8 km/h (3 Bft)
25.02.2023 02:53 23,0 C 2,7 C 1,4 C 43 % 86 % 1018 hPa 0,0 l/m 13,8 km/h (3 Bft)
25.02.2023 02:56 23,0 C 2,7 C 1,5 C 43 % 86 % 1018 hPa 0,0 l/m 13,5 km/h (3 Bft)
25.02.2023 02:59 23,0 C 2,7 C 1,5 C 43 % 86 % 1018 hPa 0,0 l/m 14,6 km/h (3 Bft)
25.02.2023 03:02 23,0 C 2,6 C 1,3 C 43 % 86 % 1018 hPa 0,0 l/m 13,4 km/h (3 Bft)
25.02.2023 03:05 23,0 C 2,6 C 1,3 C 43 % 86 % 1018 hPa 0,0 l/m 13,1 km/h (3 Bft)
25.02.2023 03:08 23,0 C 2,5 C 1,3 C 43 % 86 % 1018 hPa 0,0 l/m 17,7 km/h (3 Bft)
25.02.2023 03:11 23,0 C 2,5 C 1,4 C 43 % 86 % 1018 hPa 0,0 l/m 17,7 km/h (3 Bft)
25.02.2023 03:14 23,0 C 2,5 C 1,2 C 43 % 86 % 1018 hPa 0,0 l/m 15,6 km/h (3 Bft)
25.02.2023 03:17 23,0 C 2,5 C 1,2 C 43 % 86 % 1018 hPa 0,3 l/m 17,9 km/h (3 Bft)
25.02.2023 03:20 23,0 C 2,5 C 1,2 C 43 % 86 % 1018 hPa 0,0 l/m 17,9 km/h (3 Bft)
25.02.2023 03:23 23,0 C 2,5 C 1,1 C 43 % 86 % 1018 hPa 0,0 l/m 15,8 km/h (3 Bft)
25.02.2023 03:26 23,0 C 2,4 C 1,1 C 43 % 86 % 1018 hPa 0,0 l/m 12,0 km/h (2 Bft)
25.02.2023 03:28 23,0 C 2,3 C 1,0 C 43 % 86 % 1018 hPa 0,3 l/m 11,5 km/h (2 Bft)
25.02.2023 03:31 23,0 C 2,3 C 0,9 C 43 % 86 % 1018 hPa 0,0 l/m 15,6 km/h (3 Bft)
25.02.2023 03:34 23,0 C 2,2 C 1,0 C 43 % 86 % 1018 hPa 0,0 l/m 15,0 km/h (3 Bft)
25.02.2023 03:37 23,0 C 2,1 C 0,8 C 43 % 86 % 1018 hPa 0,0 l/m 16,8 km/h (3 Bft)
25.02.2023 03:40 23,0 C 2,0 C 0,8 C 43 % 86 % 1018 hPa 0,0 l/m 9,9 km/h (2 Bft)
25.02.2023 03:43 23,0 C 1,9 C 0,7 C 43 % 86 % 1018 hPa 0,0 l/m 18,8 km/h (3 Bft)
25.02.2023 03:46 23,0 C 1,9 C 0,7 C 43 % 86 % 1018 hPa 0,3 l/m 17,6 km/h (3 Bft)
25.02.2023 03:49 23,0 C 1,9 C 0,7 C 43 % 87 % 1018 hPa 0,0 l/m 15,6 km/h (3 Bft)
25.02.2023 03:52 23,0 C 1,9 C 0,8 C 43 % 87 % 1018 hPa 0,0 l/m 11,8 km/h (2 Bft)
25.02.2023 03:55 23,0 C 1,9 C 0,9 C 43 % 87 % 1018 hPa 0,0 l/m 8,5 km/h (2 Bft)
25.02.2023 03:58 23,0 C 1,8 C 0,7 C 43 % 87 % 1018 hPa 0,0 l/m 12,8 km/h (3 Bft)
25.02.2023 04:01 23,0 C 1,9 C 0,5 C 43 % 87 % 1018 hPa 0,0 l/m 10,6 km/h (2 Bft)
25.02.2023 04:04 23,0 C 1,9 C 0,9 C 43 % 86 % 1018 hPa 0,0 l/m 3,6 km/h (1 Bft)
25.02.2023 04:07 23,0 C 1,9 C 0,8 C 43 % 86 % 1018 hPa 0,0 l/m 3,6 km/h (1 Bft)
25.02.2023 04:10 23,0 C 1,8 C 0,5 C 43 % 87 % 1018 hPa 0,0 l/m 8,2 km/h (2 Bft)
25.02.2023 04:13 23,0 C 1,7 C 0,7 C 43 % 87 % 1018 hPa 0,0 l/m 11,3 km/h (2 Bft)
25.02.2023 04:17 23,0 C 1,7 C 0,7 C 43 % 87 % 1018 hPa 0,3 l/m 7,1 km/h (2 Bft)
25.02.2023 04:20 23,0 C 1,7 C 0,6 C 43 % 87 % 1018 hPa 0,0 l/m 6,7 km/h (2 Bft)
25.02.2023 04:23 23,0 C 1,7 C 0,4 C 43 % 87 % 1018 hPa 0,0 l/m 5,0 km/h (1 Bft)
25.02.2023 04:26 23,0 C 1,6 C 0,4 C 43 % 87 % 1018 hPa 0,0 l/m 6,7 km/h (2 Bft)
25.02.2023 04:29 23,0 C 1,6 C 0,6 C 43 % 87 % 1018 hPa 0,0 l/m 11,5 km/h (2 Bft)
25.02.2023 04:32 23,0 C 1,7 C 0,6 C 43 % 87 % 1018 hPa 0,0 l/m 6,7 km/h (2 Bft)
25.02.2023 04:35 23,0 C 1,7 C 0,4 C 43 % 87 % 1018 hPa 0,0 l/m 11,0 km/h (2 Bft)
25.02.2023 04:38 23,0 C 1,7 C 0,4 C 43 % 86 % 1018 hPa 0,0 l/m 11,2 km/h (2 Bft)
25.02.2023 04:41 23,0 C 1,7 C 0,5 C 43 % 86 % 1018 hPa 0,0 l/m 15,3 km/h (3 Bft)
25.02.2023 04:44 23,0 C 1,8 C 0,2 C 43 % 86 % 1018 hPa 0,0 l/m 13,0 km/h (3 Bft)
25.02.2023 04:47 23,0 C 1,7 C 0,3 C 43 % 86 % 1018 hPa 0,0 l/m 15,6 km/h (3 Bft)
25.02.2023 04:50 23,0 C 1,7 C -0,1 C 43 % 86 % 1018 hPa 0,0 l/m 17,0 km/h (3 Bft)
25.02.2023 04:53 23,0 C 1,7 C 0,2 C 43 % 86 % 1018 hPa 0,0 l/m 11,7 km/h (2 Bft)
25.02.2023 04:56 23,0 C 1,7 C 0,2 C 43 % 86 % 1018 hPa 0,0 l/m 13,5 km/h (3 Bft)
25.02.2023 04:59 23,0 C 1,7 C 0,1 C 43 % 86 % 1018 hPa 0,0 l/m 20,1 km/h (4 Bft)
25.02.2023 05:02 23,0 C 1,7 C -0,2 C 43 % 86 % 1018 hPa 0,3 l/m 17,1 km/h (3 Bft)
25.02.2023 05:05 23,0 C 1,7 C 0,2 C 43 % 86 % 1018 hPa 0,0 l/m 17,1 km/h (3 Bft)
25.02.2023 05:08 23,0 C 1,7 C -0,2 C 43 % 86 % 1018 hPa 0,0 l/m 15,0 km/h (3 Bft)
25.02.2023 05:11 23,0 C 1,7 C -0,2 C 43 % 86 % 1018 hPa 0,0 l/m 20,5 km/h (4 Bft)
25.02.2023 05:14 23,0 C 1,7 C -0,3 C 43 % 86 % 1018 hPa 0,0 l/m 18,4 km/h (3 Bft)
25.02.2023 05:17 23,0 C 1,7 C -0,2 C 43 % 86 % 1018 hPa 0,0 l/m 16,5 km/h (3 Bft)
25.02.2023 05:20 23,0 C 1,7 C -0,1 C 43 % 86 % 1018 hPa 0,3 l/m 16,5 km/h (3 Bft)
25.02.2023 05:23 23,0 C 1,6 C -0,4 C 43 % 86 % 1018 hPa 0,0 l/m 17,2 km/h (3 Bft)
25.02.2023 05:26 23,0 C 1,6 C -0,2 C 43 % 86 % 1018 hPa 0,0 l/m 16,5 km/h (3 Bft)
25.02.2023 05:29 23,0 C 1,6 C -0,3 C 43 % 86 % 1018 hPa 0,0 l/m 14,8 km/h (3 Bft)
25.02.2023 05:32 23,0 C 1,6 C -0,3 C 43 % 86 % 1018 hPa 0,0 l/m 21,8 km/h (4 Bft)
25.02.2023 05:35 23,0 C 1,6 C -0,3 C 43 % 86 % 1018 hPa 0,0 l/m 25,0 km/h (4 Bft)
25.02.2023 05:38 23,0 C 1,6 C -0,1 C 43 % 86 % 1018 hPa 0,0 l/m 20,6 km/h (4 Bft)
25.02.2023 05:41 23,0 C 1,6 C -0,3 C 43 % 86 % 1018 hPa 0,0 l/m 19,5 km/h (3 Bft)
25.02.2023 05:44 23,0 C 1,5 C -0,4 C 43 % 86 % 1018 hPa 0,0 l/m 29,5 km/h (5 Bft)
25.02.2023 05:47 23,0 C 1,5 C -0,3 C 43 % 86 % 1018 hPa 0,0 l/m 19,9 km/h (4 Bft)
25.02.2023 05:50 23,0 C 1,5 C -0,5 C 43 % 87 % 1018 hPa 0,0 l/m 18,0 km/h (3 Bft)
25.02.2023 05:53 23,0 C 1,4 C -0,3 C 43 % 86 % 1018 hPa 0,0 l/m 13,5 km/h (3 Bft)
25.02.2023 05:56 23,0 C 1,3 C -0,6 C 43 % 86 % 1018 hPa 0,0 l/m 21,6 km/h (4 Bft)
25.02.2023 05:59 23,0 C 1,2 C -0,6 C 43 % 86 % 1018 hPa 0,0 l/m 21,5 km/h (4 Bft)
25.02.2023 06:02 23,0 C 1,2 C -0,6 C 43 % 86 % 1018 hPa 0,0 l/m 15,6 km/h (3 Bft)
25.02.2023 06:05 23,0 C 1,2 C -0,4 C 43 % 86 % 1018 hPa 0,0 l/m 17,6 km/h (3 Bft)
25.02.2023 06:08 23,0 C 1,2 C -0,7 C 43 % 86 % 1018 hPa 0,0 l/m 23,0 km/h (4 Bft)
25.02.2023 06:11 23,0 C 1,2 C -0,6 C 43 % 86 % 1018 hPa 0,0 l/m 26,4 km/h (4 Bft)
25.02.2023 06:14 23,0 C 1,2 C -0,6 C 43 % 86 % 1018 hPa 0,0 l/m 21,4 km/h (4 Bft)
25.02.2023 06:17 23,0 C 1,2 C -0,5 C 43 % 86 % 1018 hPa 0,0 l/m 16,8 km/h (3 Bft)
25.02.2023 06:20 23,0 C 1,2 C -0,6 C 43 % 86 % 1018 hPa 0,0 l/m 24,2 km/h (4 Bft)
25.02.2023 06:23 23,0 C 1,2 C -0,4 C 43 % 86 % 1018 hPa 0,0 l/m 16,0 km/h (3 Bft)
25.02.2023 06:26 23,0 C 1,2 C -0,4 C 43 % 86 % 1018 hPa 0,0 l/m 17,3 km/h (3 Bft)
25.02.2023 06:29 23,0 C 1,2 C -0,4 C 43 % 86 % 1018 hPa 0,0 l/m 17,5 km/h (3 Bft)
25.02.2023 06:32 23,0 C 1,2 C -0,5 C 43 % 86 % 1018 hPa 0,0 l/m 16,7 km/h (3 Bft)
25.02.2023 06:35 23,0 C 1,2 C -0,6 C 43 % 86 % 1018 hPa 0,0 l/m 19,2 km/h (3 Bft)
25.02.2023 06:38 23,0 C 1,2 C -0,6 C 43 % 86 % 1018 hPa 0,0 l/m 19,0 km/h (3 Bft)
25.02.2023 06:41 23,0 C 1,2 C -0,6 C 43 % 86 % 1018 hPa 0,0 l/m 17,1 km/h (3 Bft)
25.02.2023 06:44 23,0 C 1,2 C -0,5 C 43 % 86 % 1018 hPa 0,0 l/m 17,1 km/h (3 Bft)
25.02.2023 06:47 23,0 C 1,2 C -0,4 C 43 % 86 % 1018 hPa 0,0 l/m 14,9 km/h (3 Bft)
25.02.2023 06:50 23,0 C 1,2 C -0,5 C 43 % 86 % 1018 hPa 0,0 l/m 15,2 km/h (3 Bft)
25.02.2023 06:53 23,0 C 1,2 C -0,5 C 43 % 86 % 1018 hPa 0,0 l/m 24,2 km/h (4 Bft)
25.02.2023 06:56 23,0 C 1,2 C -0,4 C 43 % 86 % 1018 hPa 0,0 l/m 20,1 km/h (4 Bft)
25.02.2023 06:59 23,0 C 1,2 C -0,6 C 43 % 86 % 1018 hPa 0,0 l/m 16,2 km/h (3 Bft)
25.02.2023 07:02 23,0 C 1,2 C -0,6 C 43 % 86 % 1018 hPa 0,0 l/m 16,5 km/h (3 Bft)
25.02.2023 07:05 23,0 C 1,2 C -0,5 C 43 % 86 % 1018 hPa 0,0 l/m 15,4 km/h (3 Bft)
25.02.2023 07:08 23,0 C 1,2 C -0,7 C 43 % 86 % 1018 hPa 0,0 l/m 15,4 km/h (3 Bft)
25.02.2023 07:11 23,0 C 1,2 C -0,6 C 43 % 86 % 1018 hPa 0,0 l/m 18,8 km/h (3 Bft)
25.02.2023 07:14 23,0 C 1,2 C -0,5 C 43 % 86 % 1018 hPa 0,0 l/m 16,6 km/h (3 Bft)
25.02.2023 07:17 23,0 C 1,2 C -0,6 C 43 % 86 % 1018 hPa 0,0 l/m 17,5 km/h (3 Bft)
25.02.2023 07:20 23,0 C 1,1 C -0,6 C 43 % 86 % 1018 hPa 0,0 l/m 14,8 km/h (3 Bft)
25.02.2023 07:23 23,0 C 1,1 C -0,7 C 43 % 86 % 1018 hPa 0,0 l/m 18,7 km/h (3 Bft)
25.02.2023 07:26 23,0 C 1,0 C -0,8 C 43 % 86 % 1018 hPa 0,0 l/m 18,3 km/h (3 Bft)
25.02.2023 07:29 23,0 C 1,1 C -0,8 C 43 % 86 % 1018 hPa 0,0 l/m 15,5 km/h (3 Bft)
25.02.2023 07:32 23,0 C 1,1 C -0,7 C 43 % 86 % 1018 hPa 0,0 l/m 19,6 km/h (3 Bft)
25.02.2023 07:35 23,0 C 1,2 C -0,8 C 43 % 86 % 1018 hPa 0,0 l/m 17,6 km/h (3 Bft)
25.02.2023 07:38 23,0 C 1,2 C -0,6 C 43 % 86 % 1018 hPa 0,0 l/m 17,2 km/h (3 Bft)
25.02.2023 07:41 23,0 C 1,2 C -0,7 C 43 % 86 % 1018 hPa 0,0 l/m 15,9 km/h (3 Bft)
25.02.2023 07:44 23,0 C 1,2 C -0,8 C 43 % 86 % 1018 hPa 0,0 l/m 16,8 km/h (3 Bft)
25.02.2023 07:47 23,0 C 1,2 C -0,7 C 43 % 86 % 1018 hPa 0,0 l/m 13,4 km/h (3 Bft)
25.02.2023 07:50 23,0 C 1,2 C -0,8 C 43 % 86 % 1018 hPa 0,0 l/m 11,6 km/h (2 Bft)
25.02.2023 07:53 23,0 C 1,3 C -0,8 C 43 % 86 % 1018 hPa 0,0 l/m 15,0 km/h (3 Bft)
25.02.2023 07:56 23,0 C 1,3 C -0,6 C 43 % 86 % 1018 hPa 0,0 l/m 19,6 km/h (3 Bft)
25.02.2023 07:59 23,0 C 1,4 C -0,6 C 43 % 86 % 1018 hPa 0,0 l/m 14,3 km/h (3 Bft)
25.02.2023 08:02 23,0 C 1,5 C -0,7 C 43 % 86 % 1018 hPa 0,0 l/m 16,9 km/h (3 Bft)
25.02.2023 08:05 23,0 C 1,5 C -0,7 C 43 % 86 % 1018 hPa 0,0 l/m 20,0 km/h (4 Bft)
25.02.2023 08:08 23,0 C 1,7 C -0,7 C 43 % 86 % 1018 hPa 0,0 l/m 15,4 km/h (3 Bft)
25.02.2023 08:11 23,0 C 1,8 C -0,4 C 43 % 85 % 1018 hPa 0,0 l/m 14,1 km/h (3 Bft)
25.02.2023 08:14 23,0 C 1,9 C -0,6 C 43 % 85 % 1018 hPa 0,0 l/m 21,3 km/h (4 Bft)
25.02.2023 08:17 23,0 C 2,0 C -0,7 C 43 % 83 % 1018 hPa 0,0 l/m 24,8 km/h (4 Bft)
25.02.2023 08:20 23,0 C 2,1 C -0,6 C 43 % 83 % 1018 hPa 0,0 l/m 18,3 km/h (3 Bft)
25.02.2023 08:23 23,0 C 2,1 C -0,8 C 43 % 83 % 1018 hPa 0,0 l/m 22,4 km/h (4 Bft)
25.02.2023 08:26 23,0 C 2,2 C -0,8 C 43 % 81 % 1018 hPa 0,0 l/m 19,5 km/h (3 Bft)
25.02.2023 08:29 23,0 C 2,3 C -0,8 C 43 % 81 % 1018 hPa 0,0 l/m 19,1 km/h (3 Bft)
25.02.2023 08:32 23,0 C 2,3 C -0,7 C 43 % 81 % 1018 hPa 0,0 l/m 18,2 km/h (3 Bft)
25.02.2023 08:35 23,0 C 2,3 C -0,6 C 43 % 81 % 1018 hPa 0,0 l/m 21,8 km/h (4 Bft)
25.02.2023 08:38 23,0 C 2,1 C -0,6 C 43 % 81 % 1018 hPa 0,0 l/m 14,1 km/h (3 Bft)
25.02.2023 08:41 23,0 C 2,2 C -0,5 C 43 % 81 % 1018 hPa 0,0 l/m 14,8 km/h (3 Bft)
25.02.2023 08:44 23,0 C 2,3 C -0,7 C 43 % 82 % 1018 hPa 0,0 l/m 17,9 km/h (3 Bft)
25.02.2023 08:47 23,0 C 2,3 C -0,7 C 43 % 82 % 1018 hPa 0,0 l/m 12,5 km/h (3 Bft)
25.02.2023 08:50 23,0 C 2,3 C -0,7 C 43 % 81 % 1018 hPa 0,0 l/m 14,6 km/h (3 Bft)
25.02.2023 08:53 23,0 C 2,3 C -0,6 C 43 % 81 % 1018 hPa 0,0 l/m 15,5 km/h (3 Bft)
25.02.2023 08:56 23,0 C 2,4 C -0,8 C 43 % 82 % 1018 hPa 0,0 l/m 15,0 km/h (3 Bft)
25.02.2023 08:59 23,0 C 2,3 C -0,7 C 43 % 81 % 1018 hPa 0,0 l/m 12,0 km/h (2 Bft)
25.02.2023 09:02 23,0 C 2,3 C -0,7 C 43 % 82 % 1018 hPa 0,0 l/m 11,2 km/h (2 Bft)
25.02.2023 09:05 23,0 C 2,3 C -0,4 C 43 % 83 % 1018 hPa 0,0 l/m 9,8 km/h (2 Bft)
25.02.2023 09:08 23,0 C 2,3 C -0,5 C 43 % 83 % 1018 hPa 0,0 l/m 17,4 km/h (3 Bft)
25.02.2023 09:11 23,0 C 2,6 C -0,6 C 43 % 83 % 1018 hPa 0,0 l/m 19,1 km/h (3 Bft)
25.02.2023 09:14 23,0 C 2,7 C -0,3 C 43 % 83 % 1018 hPa 0,0 l/m 14,0 km/h (3 Bft)
25.02.2023 09:17 23,0 C 2,8 C -0,3 C 43 % 83 % 1018 hPa 0,0 l/m 18,5 km/h (3 Bft)
25.02.2023 09:20 23,0 C 2,8 C -0,6 C 43 % 83 % 1018 hPa 0,0 l/m 18,4 km/h (3 Bft)
25.02.2023 09:23 23,0 C 2,8 C -0,6 C 43 % 82 % 1018 hPa 0,0 l/m 22,9 km/h (4 Bft)
25.02.2023 09:26 23,0 C 2,9 C -0,4 C 43 % 82 % 1018 hPa 0,0 l/m 20,9 km/h (4 Bft)
25.02.2023 09:29 23,0 C 3,1 C -0,4 C 43 % 83 % 1018 hPa 0,0 l/m 16,0 km/h (3 Bft)
25.02.2023 09:32 23,0 C 3,4 C -0,3 C 43 % 82 % 1018 hPa 0,0 l/m 23,8 km/h (4 Bft)
25.02.2023 09:35 23,0 C 3,5 C -0,2 C 43 % 82 % 1018 hPa 0,0 l/m 23,8 km/h (4 Bft)
25.02.2023 09:38 23,0 C 3,6 C -0,2 C 43 % 82 % 1018 hPa 0,0 l/m 18,3 km/h (3 Bft)
25.02.2023 09:41 23,0 C 3,8 C -0,2 C 43 % 80 % 1018 hPa 0,0 l/m 28,0 km/h (4 Bft)
25.02.2023 09:44 23,0 C 3,9 C -0,3 C 43 % 79 % 1018 hPa 0,0 l/m 28,3 km/h (4 Bft)
25.02.2023 09:47 23,0 C 3,8 C -0,3 C 43 % 80 % 1018 hPa 0,0 l/m 24,5 km/h (4 Bft)
25.02.2023 09:50 23,0 C 3,8 C -0,2 C 43 % 80 % 1018 hPa 0,0 l/m 25,0 km/h (4 Bft)
25.02.2023 09:53 23,0 C 3,8 C -0,2 C 43 % 79 % 1018 hPa 0,0 l/m 27,8 km/h (4 Bft)
25.02.2023 09:56 23,0 C 3,8 C -0,2 C 43 % 79 % 1018 hPa 0,0 l/m 25,6 km/h (4 Bft)
25.02.2023 09:59 23,0 C 3,8 C -0,3 C 43 % 79 % 1018 hPa 0,0 l/m 22,3 km/h (4 Bft)
25.02.2023 10:02 23,0 C 3,8 C -0,2 C 43 % 79 % 1018 hPa 0,0 l/m 21,1 km/h (4 Bft)
25.02.2023 10:05 23,0 C 3,8 C -0,2 C 43 % 79 % 1018 hPa 0,0 l/m 25,2 km/h (4 Bft)
25.02.2023 10:08 23,0 C 3,8 C -0,1 C 43 % 79 % 1018 hPa 0,0 l/m 26,0 km/h (4 Bft)
25.02.2023 10:11 23,0 C 3,8 C -0,2 C 43 % 78 % 1018 hPa 0,0 l/m 22,3 km/h (4 Bft)
25.02.2023 10:14 23,0 C 3,9 C -0,2 C 43 % 79 % 1018 hPa 0,0 l/m 25,8 km/h (4 Bft)
25.02.2023 10:17 23,0 C 4,1 C 0,0 C 43 % 78 % 1018 hPa 0,0 l/m 22,6 km/h (4 Bft)
25.02.2023 10:20 23,0 C 4,1 C 0,0 C 43 % 78 % 1018 hPa 0,0 l/m 22,7 km/h (4 Bft)
25.02.2023 10:23 23,0 C 4,1 C -0,2 C 43 % 76 % 1018 hPa 0,0 l/m 26,8 km/h (4 Bft)
25.02.2023 10:26 23,0 C 4,3 C -0,1 C 43 % 77 % 1018 hPa 0,0 l/m 27,6 km/h (4 Bft)
25.02.2023 10:29 23,0 C 4,5 C -0,1 C 43 % 74 % 1018 hPa 0,0 l/m 28,1 km/h (4 Bft)
25.02.2023 10:32 23,0 C 4,7 C 0,1 C 43 % 75 % 1018 hPa 0,0 l/m 19,9 km/h (4 Bft)
25.02.2023 10:35 23,0 C 4,9 C 0,0 C 43 % 76 % 1018 hPa 0,0 l/m 19,9 km/h (4 Bft)
25.02.2023 10:38 23,0 C 4,9 C 0,0 C 43 % 74 % 1018 hPa 0,0 l/m 19,3 km/h (3 Bft)
25.02.2023 10:41 23,0 C 4,9 C 0,0 C 43 % 73 % 1018 hPa 0,0 l/m 19,3 km/h (3 Bft)
25.02.2023 10:44 23,0 C 5,1 C 0,0 C 43 % 74 % 1018 hPa 0,0 l/m 15,6 km/h (3 Bft)
25.02.2023 10:47 23,0 C 5,1 C 0,0 C 43 % 74 % 1018 hPa 0,0 l/m 15,6 km/h (3 Bft)
25.02.2023 10:49 23,0 C 5,1 C 0,0 C 43 % 74 % 1018 hPa 0,0 l/m 15,6 km/h (3 Bft)
25.02.2023 10:53 23,0 C 5,1 C -0,1 C 43 % 74 % 1018 hPa 0,0 l/m 27,5 km/h (4 Bft)
25.02.2023 10:56 23,0 C 5,1 C 0,1 C 43 % 69 % 1018 hPa 0,0 l/m 33,1 km/h (5 Bft)
25.02.2023 10:59 23,0 C 4,9 C 0,0 C 43 % 65 % 1018 hPa 0,0 l/m 26,6 km/h (4 Bft)
25.02.2023 11:08 23,0 C 4,9 C 0,1 C 43 % 65 % 1018 hPa 0,0 l/m 21,4 km/h (4 Bft)
25.02.2023 11:11 23,0 C 4,8 C 0,0 C 43 % 65 % 1018 hPa 0,0 l/m 32,2 km/h (5 Bft)
25.02.2023 11:14 23,0 C 4,7 C 0,0 C 43 % 64 % 1018 hPa 0,0 l/m 32,4 km/h (5 Bft)
25.02.2023 11:17 23,0 C 4,8 C 0,3 C 43 % 67 % 1018 hPa 0,0 l/m 23,5 km/h (4 Bft)
25.02.2023 11:20 23,0 C 4,8 C 0,3 C 43 % 67 % 1018 hPa 0,0 l/m 25,1 km/h (4 Bft)
25.02.2023 11:23 23,0 C 4,9 C 0,3 C 43 % 67 % 1018 hPa 0,0 l/m 27,6 km/h (4 Bft)
25.02.2023 11:26 23,0 C 4,9 C 0,4 C 43 % 67 % 1018 hPa 0,0 l/m 28,9 km/h (5 Bft)
25.02.2023 11:29 23,0 C 4,8 C 0,1 C 43 % 65 % 1018 hPa 0,0 l/m 35,9 km/h (5 Bft)
25.02.2023 11:32 23,0 C 4,8 C 0,2 C 43 % 66 % 1018 hPa 0,0 l/m 35,9 km/h (5 Bft)
25.02.2023 11:35 23,0 C 5,1 C 0,2 C 43 % 66 % 1018 hPa 0,0 l/m 22,3 km/h (4 Bft)
25.02.2023 11:38 23,0 C 5,2 C 0,4 C 43 % 65 % 1018 hPa 0,0 l/m 24,1 km/h (4 Bft)
25.02.2023 11:41 23,0 C 5,1 C 0,3 C 43 % 63 % 1018 hPa 0,0 l/m 21,6 km/h (4 Bft)
25.02.2023 11:44 23,0 C 5,1 C 0,3 C 43 % 65 % 1018 hPa 0,0 l/m 29,8 km/h (5 Bft)
25.02.2023 11:47 23,0 C 5,3 C 0,7 C 43 % 65 % 1018 hPa 0,0 l/m 19,6 km/h (3 Bft)
25.02.2023 11:50 23,0 C 5,4 C 0,4 C 43 % 64 % 1018 hPa 0,0 l/m 30,6 km/h (5 Bft)
25.02.2023 11:53 23,0 C 5,6 C 1,2 C 43 % 67 % 1018 hPa 0,0 l/m 19,2 km/h (3 Bft)
25.02.2023 11:56 23,0 C 5,6 C 0,5 C 43 % 65 % 1018 hPa 0,0 l/m 18,0 km/h (3 Bft)
25.02.2023 11:59 23,0 C 5,3 C 0,3 C 43 % 65 % 1018 hPa 0,0 l/m 28,4 km/h (4 Bft)
25.02.2023 12:08 23,0 C 5,3 C 0,4 C 43 % 65 % 1018 hPa 0,0 l/m 21,6 km/h (4 Bft)
25.02.2023 12:11 23,0 C 6,3 C 0,8 C 43 % 62 % 1018 hPa 0,0 l/m 22,9 km/h (4 Bft)
25.02.2023 12:14 23,0 C 6,6 C 0,8 C 43 % 60 % 1018 hPa 0,0 l/m 21,1 km/h (4 Bft)
25.02.2023 12:17 23,0 C 6,4 C 0,4 C 43 % 60 % 1018 hPa 0,0 l/m 25,0 km/h (4 Bft)
25.02.2023 12:20 23,0 C 6,4 C 1,0 C 43 % 60 % 1018 hPa 0,0 l/m 27,8 km/h (4 Bft)
25.02.2023 12:23 23,0 C 6,4 C 0,9 C 43 % 61 % 1018 hPa 0,0 l/m 30,8 km/h (5 Bft)
25.02.2023 12:26 23,0 C 6,6 C 1,9 C 43 % 63 % 1018 hPa 0,0 l/m 23,6 km/h (4 Bft)
25.02.2023 12:29 23,0 C 6,7 C 1,2 C 43 % 62 % 1018 hPa 0,0 l/m 18,8 km/h (3 Bft)
25.02.2023 12:32 23,0 C 6,9 C 2,2 C 43 % 63 % 1018 hPa 0,0 l/m 22,3 km/h (4 Bft)
25.02.2023 12:35 23,0 C 6,8 C 1,0 C 43 % 61 % 1018 hPa 0,0 l/m 22,3 km/h (4 Bft)
25.02.2023 12:38 23,0 C 6,6 C 1,0 C 43 % 61 % 1018 hPa 0,0 l/m 22,3 km/h (4 Bft)
25.02.2023 12:41 23,0 C 6,2 C 0,6 C 43 % 62 % 1018 hPa 0,0 l/m 33,0 km/h (5 Bft)
25.02.2023 12:44 23,0 C 6,0 C 0,5 C 43 % 63 % 1018 hPa 0,0 l/m 20,6 km/h (4 Bft)
25.02.2023 12:47 23,0 C 6,0 C 0,7 C 43 % 63 % 1018 hPa 0,0 l/m 29,9 km/h (5 Bft)
25.02.2023 12:50 23,0 C 6,0 C 0,6 C 43 % 63 % 1018 hPa 0,0 l/m 30,1 km/h (5 Bft)
25.02.2023 12:53 23,0 C 5,9 C 0,7 C 43 % 61 % 1018 hPa 0,0 l/m 23,8 km/h (4 Bft)
25.02.2023 12:56 23,0 C 5,7 C 0,7 C 43 % 62 % 1018 hPa 0,0 l/m 25,5 km/h (4 Bft)
25.02.2023 12:59 23,0 C 5,6 C 0,6 C 43 % 63 % 1018 hPa 0,0 l/m 22,5 km/h (4 Bft)
25.02.2023 13:08 23,0 C 5,5 C 0,6 C 43 % 62 % 1018 hPa 0,0 l/m 25,5 km/h (4 Bft)
25.02.2023 13:11 23,0 C 5,4 C 0,8 C 43 % 63 % 1018 hPa 0,0 l/m 23,6 km/h (4 Bft)
25.02.2023 13:14 23,0 C 5,3 C 0,8 C 43 % 63 % 1018 hPa 0,0 l/m 25,8 km/h (4 Bft)
25.02.2023 13:17 23,0 C 5,2 C 0,6 C 43 % 63 % 1018 hPa 0,0 l/m 25,8 km/h (4 Bft)
25.02.2023 13:20 23,0 C 5,2 C 0,7 C 43 % 63 % 1018 hPa 0,0 l/m 28,8 km/h (4 Bft)
25.02.2023 13:23 23,0 C 5,4 C 0,7 C 43 % 64 % 1018 hPa 0,0 l/m 23,8 km/h (4 Bft)
25.02.2023 13:26 23,0 C 5,4 C 0,7 C 43 % 63 % 1018 hPa 0,0 l/m 23,7 km/h (4 Bft)
25.02.2023 13:29 23,0 C 5,2 C 0,7 C 43 % 63 % 1018 hPa 0,0 l/m 25,9 km/h (4 Bft)
25.02.2023 13:32 23,0 C 5,1 C 0,7 C 43 % 63 % 1018 hPa 0,0 l/m 20,0 km/h (4 Bft)
25.02.2023 13:35 23,0 C 5,1 C 0,7 C 43 % 63 % 1018 hPa 0,0 l/m 18,5 km/h (3 Bft)
25.02.2023 13:38 23,0 C 4,9 C 0,8 C 43 % 64 % 1018 hPa 0,0 l/m 17,3 km/h (3 Bft)
25.02.2023 13:41 23,0 C 5,1 C 0,8 C 43 % 64 % 1018 hPa 0,0 l/m 16,2 km/h (3 Bft)
25.02.2023 13:44 23,0 C 5,1 C 0,8 C 43 % 65 % 1018 hPa 0,0 l/m 11,0 km/h (2 Bft)
25.02.2023 13:47 23,0 C 5,2 C 0,8 C 43 % 65 % 1018 hPa 0,0 l/m 14,1 km/h (3 Bft)
25.02.2023 13:50 23,0 C 5,2 C 0,8 C 43 % 64 % 1018 hPa 0,0 l/m 13,0 km/h (3 Bft)
25.02.2023 13:53 23,0 C 5,2 C 0,8 C 43 % 63 % 1018 hPa 0,0 l/m 13,0 km/h (3 Bft)
25.02.2023 13:56 23,0 C 5,3 C 0,8 C 43 % 63 % 1018 hPa 0,0 l/m 18,0 km/h (3 Bft)
25.02.2023 13:59 23,0 C 5,4 C 0,8 C 43 % 62 % 1018 hPa 0,0 l/m 28,3 km/h (4 Bft)
25.02.2023 14:08 23,0 C 5,4 C 0,8 C 43 % 62 % 1018 hPa 0,0 l/m 28,3 km/h (4 Bft)
25.02.2023 14:11 23,0 C 5,8 C 1,6 C 43 % 63 % 1018 hPa 0,0 l/m 13,2 km/h (3 Bft)
25.02.2023 14:14 23,0 C 5,8 C 1,6 C 43 % 63 % 1018 hPa 0,0 l/m 15,4 km/h (3 Bft)
25.02.2023 14:17 23,0 C 6,5 C 1,5 C 43 % 62 % 1018 hPa 0,0 l/m 15,8 km/h (3 Bft)
25.02.2023 14:20 23,0 C 6,5 C 1,4 C 43 % 62 % 1018 hPa 0,0 l/m 23,5 km/h (4 Bft)
25.02.2023 14:23 23,0 C 6,4 C 1,2 C 43 % 60 % 1018 hPa 0,0 l/m 20,9 km/h (4 Bft)
25.02.2023 14:26 23,0 C 6,1 C 1,1 C 43 % 60 % 1018 hPa 0,0 l/m 22,0 km/h (4 Bft)
25.02.2023 14:29 23,0 C 6,4 C 1,4 C 43 % 61 % 1018 hPa 0,0 l/m 20,8 km/h (4 Bft)
25.02.2023 14:32 23,0 C 6,3 C 1,2 C 43 % 60 % 1018 hPa 0,0 l/m 22,0 km/h (4 Bft)
25.02.2023 14:35 23,0 C 6,1 C 1,2 C 43 % 59 % 1018 hPa 0,0 l/m 26,8 km/h (4 Bft)
25.02.2023 14:38 23,0 C 6,0 C 1,2 C 43 % 59 % 1018 hPa 0,0 l/m 26,8 km/h (4 Bft)
25.02.2023 14:41 23,0 C 6,1 C 1,1 C 43 % 59 % 1018 hPa 0,0 l/m 18,6 km/h (3 Bft)
25.02.2023 14:44 23,0 C 6,0 C 1,0 C 43 % 59 % 1018 hPa 0,0 l/m 20,1 km/h (4 Bft)
25.02.2023 14:47 23,0 C 6,1 C 1,2 C 43 % 59 % 1018 hPa 0,0 l/m 17,6 km/h (3 Bft)
25.02.2023 14:50 23,0 C 6,0 C 1,1 C 43 % 59 % 1018 hPa 0,0 l/m 24,0 km/h (4 Bft)
25.02.2023 14:53 23,0 C 5,9 C 1,1 C 43 % 57 % 1018 hPa 0,0 l/m 23,5 km/h (4 Bft)
25.02.2023 14:56 23,0 C 5,8 C 1,0 C 43 % 58 % 1018 hPa 0,0 l/m 26,8 km/h (4 Bft)
25.02.2023 14:59 23,0 C 5,8 C 1,0 C 43 % 58 % 1018 hPa 0,0 l/m 26,8 km/h (4 Bft)
25.02.2023 15:08 23,0 C 5,8 C 1,0 C 43 % 59 % 1018 hPa 0,0 l/m 21,3 km/h (4 Bft)
25.02.2023 15:11 23,0 C 6,0 C 1,3 C 43 % 59 % 1018 hPa 0,0 l/m 28,7 km/h (4 Bft)
25.02.2023 15:14 23,0 C 6,0 C 1,2 C 43 % 58 % 1018 hPa 0,0 l/m 21,9 km/h (4 Bft)
25.02.2023 15:17 23,0 C 6,1 C 1,3 C 43 % 58 % 1018 hPa 0,0 l/m 21,3 km/h (4 Bft)
25.02.2023 15:20 23,0 C 6,0 C 1,2 C 43 % 59 % 1018 hPa 0,0 l/m 27,7 km/h (4 Bft)
25.02.2023 15:23 23,0 C 5,8 C 1,0 C 43 % 59 % 1018 hPa 0,0 l/m 27,6 km/h (4 Bft)
25.02.2023 15:26 23,0 C 5,7 C 1,0 C 43 % 60 % 1018 hPa 0,0 l/m 21,4 km/h (4 Bft)
25.02.2023 15:29 23,0 C 5,7 C 1,0 C 43 % 60 % 1018 hPa 0,0 l/m 27,5 km/h (4 Bft)
25.02.2023 15:32 23,0 C 5,7 C 1,0 C 43 % 60 % 1018 hPa 0,0 l/m 25,3 km/h (4 Bft)
25.02.2023 15:35 23,0 C 5,9 C 1,0 C 43 % 60 % 1018 hPa 0,0 l/m 27,8 km/h (4 Bft)
25.02.2023 15:38 23,0 C 6,0 C 1,4 C 43 % 61 % 1018 hPa 0,0 l/m 24,5 km/h (4 Bft)
25.02.2023 15:41 23,0 C 6,2 C 1,2 C 43 % 59 % 1018 hPa 0,0 l/m 30,1 km/h (5 Bft)
25.02.2023 15:44 23,0 C 6,2 C 1,2 C 43 % 58 % 1018 hPa 0,0 l/m 24,3 km/h (4 Bft)
25.02.2023 15:47 23,0 C 6,0 C 1,2 C 43 % 59 % 1018 hPa 0,0 l/m 22,8 km/h (4 Bft)
25.02.2023 15:50 23,0 C 6,0 C 1,1 C 43 % 59 % 1018 hPa 0,0 l/m 19,6 km/h (3 Bft)
25.02.2023 15:53 23,0 C 5,6 C 1,0 C 43 % 60 % 1018 hPa 0,0 l/m 31,1 km/h (5 Bft)
25.02.2023 15:56 23,0 C 5,5 C 1,0 C 43 % 61 % 1018 hPa 0,0 l/m 20,7 km/h (4 Bft)
25.02.2023 15:59 23,0 C 5,6 C 1,0 C 43 % 61 % 1018 hPa 0,0 l/m 19,6 km/h (3 Bft)
25.02.2023 16:08 23,0 C 5,6 C 1,1 C 43 % 61 % 1018 hPa 0,0 l/m 20,4 km/h (4 Bft)
25.02.2023 16:11 23,0 C 6,0 C 1,3 C 43 % 58 % 1018 hPa 0,0 l/m 27,8 km/h (4 Bft)
25.02.2023 16:14 23,0 C 5,8 C 1,2 C 43 % 60 % 1018 hPa 0,0 l/m 19,4 km/h (3 Bft)
25.02.2023 16:17 23,0 C 5,6 C 1,1 C 43 % 60 % 1018 hPa 0,0 l/m 20,6 km/h (4 Bft)
25.02.2023 16:20 23,0 C 5,6 C 1,1 C 43 % 61 % 1018 hPa 0,0 l/m 20,6 km/h (4 Bft)
25.02.2023 16:23 23,0 C 5,5 C 1,1 C 43 % 63 % 1018 hPa 0,0 l/m 17,7 km/h (3 Bft)
25.02.2023 16:26 23,0 C 5,4 C 1,0 C 43 % 61 % 1018 hPa 0,0 l/m 23,0 km/h (4 Bft)
25.02.2023 16:29 23,0 C 5,2 C 1,0 C 43 % 62 % 1018 hPa 0,0 l/m 20,1 km/h (4 Bft)
25.02.2023 16:32 23,0 C 5,2 C 1,0 C 43 % 62 % 1018 hPa 0,0 l/m 15,0 km/h (3 Bft)
25.02.2023 16:35 23,0 C 5,2 C 1,0 C 43 % 63 % 1018 hPa 0,0 l/m 20,0 km/h (4 Bft)
25.02.2023 16:38 23,0 C 5,1 C 0,9 C 43 % 63 % 1018 hPa 0,0 l/m 25,0 km/h (4 Bft)
25.02.2023 16:41 23,0 C 4,9 C 0,9 C 43 % 63 % 1018 hPa 0,0 l/m 25,0 km/h (4 Bft)
25.02.2023 16:44 23,0 C 4,9 C 0,9 C 43 % 63 % 1018 hPa 0,0 l/m 23,6 km/h (4 Bft)
25.02.2023 16:47 23,0 C 4,8 C 0,9 C 43 % 63 % 1018 hPa 0,0 l/m 21,2 km/h (4 Bft)
25.02.2023 16:50 23,0 C 4,8 C 0,9 C 43 % 63 % 1018 hPa 0,0 l/m 24,3 km/h (4 Bft)
25.02.2023 16:53 23,0 C 4,7 C 0,9 C 43 % 63 % 1018 hPa 0,0 l/m 19,8 km/h (3 Bft)
25.02.2023 16:56 23,0 C 4,7 C 0,9 C 43 % 63 % 1018 hPa 0,0 l/m 22,1 km/h (4 Bft)
25.02.2023 16:59 23,0 C 4,7 C 0,9 C 43 % 63 % 1018 hPa 0,0 l/m 20,7 km/h (4 Bft)
25.02.2023 17:02 23,0 C 4,2 C 0,8 C 43 % 70 % 1018 hPa 0,0 l/m 24,1 km/h (4 Bft)
25.02.2023 17:05 23,0 C 3,7 C 0,9 C 43 % 74 % 1018 hPa 0,0 l/m 15,5 km/h (3 Bft)
25.02.2023 17:08 23,0 C 3,3 C 0,7 C 43 % 77 % 1018 hPa 0,0 l/m 20,9 km/h (4 Bft)
25.02.2023 17:11 23,0 C 2,7 C 0,7 C 43 % 80 % 1018 hPa 0,0 l/m 19,6 km/h (3 Bft)
25.02.2023 17:14 23,0 C 2,3 C 0,5 C 43 % 81 % 1018 hPa 0,0 l/m 22,0 km/h (4 Bft)
25.02.2023 17:17 23,0 C 2,0 C 0,5 C 43 % 82 % 1018 hPa 0,0 l/m 15,2 km/h (3 Bft)
25.02.2023 17:20 23,0 C 2,0 C 0,5 C 43 % 82 % 1018 hPa 0,0 l/m 17,7 km/h (3 Bft)
25.02.2023 17:23 23,0 C 1,4 C 0,8 C 43 % 84 % 1018 hPa 0,0 l/m 13,5 km/h (3 Bft)
25.02.2023 17:26 23,0 C 1,2 C 0,8 C 43 % 84 % 1018 hPa 0,0 l/m 12,0 km/h (2 Bft)
25.02.2023 17:29 23,0 C 1,2 C 0,7 C 43 % 85 % 1018 hPa 0,3 l/m 13,9 km/h (3 Bft)
25.02.2023 17:32 23,0 C 1,2 C 0,8 C 43 % 85 % 1018 hPa 0,0 l/m 7,8 km/h (2 Bft)
25.02.2023 17:35 23,0 C 1,2 C 0,7 C 43 % 85 % 1018 hPa 0,0 l/m 8,1 km/h (2 Bft)
25.02.2023 17:38 23,0 C 1,2 C 0,1 C 43 % 85 % 1018 hPa 0,0 l/m 7,0 km/h (2 Bft)
25.02.2023 17:41 23,0 C 1,0 C 0,5 C 43 % 85 % 1018 hPa 0,0 l/m 9,2 km/h (2 Bft)
25.02.2023 17:44 23,0 C 0,9 C 0,5 C 43 % 85 % 1018 hPa 0,0 l/m 9,4 km/h (2 Bft)
25.02.2023 17:47 23,0 C 0,8 C 0,4 C 43 % 85 % 1018 hPa 0,0 l/m 9,4 km/h (2 Bft)
25.02.2023 17:50 23,0 C 0,7 C 0,3 C 43 % 85 % 1018 hPa 0,0 l/m 7,4 km/h (2 Bft)
25.02.2023 17:53 23,0 C 0,7 C 0,0 C 43 % 85 % 1018 hPa 0,0 l/m 7,4 km/h (2 Bft)
25.02.2023 17:56 23,0 C 0,7 C 0,4 C 43 % 85 % 1018 hPa 0,0 l/m 7,3 km/h (2 Bft)
25.02.2023 17:59 23,0 C 0,6 C 0,4 C 43 % 85 % 1018 hPa 0,0 l/m 6,2 km/h (2 Bft)
25.02.2023 18:02 23,0 C 0,6 C 0,4 C 43 % 86 % 1018 hPa 0,0 l/m 8,4 km/h (2 Bft)
25.02.2023 18:05 23,0 C 0,6 C 0,4 C 43 % 86 % 1018 hPa 0,0 l/m 4,3 km/h (1 Bft)
25.02.2023 18:08 23,0 C 0,5 C 0,3 C 43 % 86 % 1018 hPa 0,0 l/m 5,4 km/h (1 Bft)
25.02.2023 18:11 23,0 C 0,5 C 0,2 C 43 % 86 % 1018 hPa 0,0 l/m 9,4 km/h (2 Bft)
25.02.2023 18:14 23,0 C 0,4 C 0,2 C 43 % 86 % 1018 hPa 0,0 l/m 8,1 km/h (2 Bft)
25.02.2023 18:17 23,0 C 0,3 C 0,1 C 43 % 86 % 1018 hPa 0,0 l/m 8,1 km/h (2 Bft)
25.02.2023 18:20 23,0 C 0,3 C 0,2 C 43 % 86 % 1018 hPa 0,0 l/m 5,0 km/h (1 Bft)
25.02.2023 18:23 23,0 C 0,3 C 0,1 C 43 % 86 % 1018 hPa 0,0 l/m 10,6 km/h (2 Bft)
25.02.2023 18:26 23,0 C 0,3 C 0,4 C 43 % 86 % 1018 hPa 0,0 l/m 4,0 km/h (1 Bft)
25.02.2023 18:29 23,0 C 0,3 C 0,5 C 43 % 86 % 1018 hPa 0,0 l/m 0,6 km/h (0 Bft)
25.02.2023 18:32 23,0 C 0,3 C 0,1 C 43 % 86 % 1018 hPa 0,0 l/m 0,6 km/h (0 Bft)
25.02.2023 18:35 23,0 C 0,2 C 0,5 C 43 % 86 % 1018 hPa 0,0 l/m 2,1 km/h (1 Bft)
25.02.2023 18:38 23,0 C 0,2 C 0,5 C 43 % 86 % 1018 hPa 0,0 l/m 1,9 km/h (1 Bft)
25.02.2023 18:41 23,0 C 0,1 C 0,2 C 43 % 86 % 1018 hPa 0,0 l/m 1,9 km/h (1 Bft)
25.02.2023 18:44 23,0 C 0,1 C 0,2 C 43 % 86 % 1018 hPa 0,0 l/m 3,6 km/h (1 Bft)
25.02.2023 18:47 23,0 C 0,1 C -0,1 C 43 % 87 % 1018 hPa 0,0 l/m 1,5 km/h (1 Bft)
25.02.2023 18:50 23,0 C 0,1 C 0,3 C 43 % 87 % 1018 hPa 0,0 l/m 0,9 km/h (0 Bft)
25.02.2023 18:53 23,0 C 0,1 C 0,5 C 43 % 87 % 1018 hPa 0,0 l/m 7,3 km/h (2 Bft)
25.02.2023 18:56 23,0 C 0,1 C 0,3 C 43 % 87 % 1018 hPa 0,0 l/m 7,3 km/h (2 Bft)
25.02.2023 18:59 23,0 C 0,1 C 0,4 C 43 % 87 % 1018 hPa 0,0 l/m 5,7 km/h (1 Bft)
25.02.2023 19:02 23,0 C 0,0 C 0,2 C 43 % 87 % 1018 hPa 0,0 l/m 6,0 km/h (2 Bft)
25.02.2023 19:05 23,0 C 0,1 C 0,4 C 43 % 87 % 1018 hPa 0,0 l/m 5,5 km/h (1 Bft)
25.02.2023 19:08 23,0 C 0,1 C 0,4 C 43 % 87 % 1018 hPa 0,0 l/m 7,0 km/h (2 Bft)
25.02.2023 19:11 23,0 C 0,0 C 0,2 C 43 % 87 % 1018 hPa 0,0 l/m 5,7 km/h (1 Bft)
25.02.2023 19:14 23,0 C 0,1 C 0,2 C 43 % 87 % 1018 hPa 0,0 l/m 5,7 km/h (1 Bft)
25.02.2023 19:17 23,0 C 0,1 C -0,1 C 43 % 87 % 1018 hPa 0,0 l/m 7,0 km/h (2 Bft)
25.02.2023 19:20 23,0 C 0,1 C -0,1 C 43 % 87 % 1018 hPa 0,0 l/m 7,1 km/h (2 Bft)
25.02.2023 19:23 23,0 C 0,0 C -0,1 C 43 % 87 % 1018 hPa 0,0 l/m 6,1 km/h (2 Bft)
25.02.2023 19:26 23,0 C 0,1 C 0,2 C 43 % 87 % 1018 hPa 0,0 l/m 6,6 km/h (2 Bft)
25.02.2023 19:29 23,0 C 0,1 C 0,2 C 43 % 87 % 1018 hPa 0,0 l/m 6,8 km/h (2 Bft)
25.02.2023 19:32 23,0 C 0,1 C 0,1 C 43 % 87 % 1018 hPa 0,0 l/m 7,9 km/h (2 Bft)
25.02.2023 19:35 23,0 C 0,1 C 0,3 C 43 % 87 % 1018 hPa 0,0 l/m 6,1 km/h (2 Bft)
25.02.2023 19:38 23,0 C 0,1 C 0,3 C 43 % 87 % 1018 hPa 0,0 l/m 4,5 km/h (1 Bft)
25.02.2023 19:41 23,0 C 0,1 C 0,4 C 43 % 87 % 1018 hPa 0,0 l/m 5,0 km/h (1 Bft)
25.02.2023 19:44 23,0 C 0,1 C 0,3 C 43 % 87 % 1018 hPa 0,0 l/m 4,2 km/h (1 Bft)
25.02.2023 19:47 23,0 C 0,1 C 0,3 C 43 % 87 % 1018 hPa 0,0 l/m 7,3 km/h (2 Bft)
25.02.2023 19:50 23,0 C 0,1 C 0,4 C 43 % 87 % 1018 hPa 0,0 l/m 3,3 km/h (1 Bft)
25.02.2023 19:53 23,0 C 0,1 C 0,4 C 43 % 87 % 1018 hPa 0,0 l/m 3,3 km/h (1 Bft)
25.02.2023 19:56 23,0 C 0,1 C 0,3 C 43 % 87 % 1018 hPa 0,0 l/m 1,8 km/h (1 Bft)
25.02.2023 19:59 23,0 C 0,1 C 0,3 C 43 % 87 % 1018 hPa 0,0 l/m 3,4 km/h (1 Bft)
25.02.2023 20:02 23,0 C 0,1 C 0,4 C 43 % 87 % 1018 hPa 0,0 l/m 4,8 km/h (1 Bft)
25.02.2023 20:05 23,0 C 0,1 C 0,1 C 43 % 87 % 1018 hPa 0,0 l/m 6,0 km/h (2 Bft)
25.02.2023 20:08 23,0 C 0,1 C 0,1 C 43 % 87 % 1018 hPa 0,0 l/m 4,8 km/h (1 Bft)
25.02.2023 20:11 23,0 C 0,1 C 0,0 C 43 % 87 % 1018 hPa 0,0 l/m 7,0 km/h (2 Bft)
25.02.2023 20:14 23,0 C 0,2 C 0,1 C 43 % 87 % 1018 hPa 0,0 l/m 6,8 km/h (2 Bft)
25.02.2023 20:17 23,0 C 0,2 C 0,1 C 43 % 87 % 1018 hPa 0,0 l/m 6,8 km/h (2 Bft)
25.02.2023 20:20 23,0 C 0,2 C 0,1 C 43 % 87 % 1018 hPa 0,0 l/m 0,3 km/h (0 Bft)
25.02.2023 20:23 23,0 C 0,1 C 0,1 C 43 % 87 % 1018 hPa 0,0 l/m 0,0 km/h (0 Bft)
25.02.2023 20:26 23,0 C 0,1 C 0,1 C 43 % 87 % 1018 hPa 0,0 l/m 2,2 km/h (1 Bft)
25.02.2023 20:29 23,0 C 0,0 C 0,1 C 43 % 87 % 1018 hPa 0,0 l/m 5,5 km/h (1 Bft)
25.02.2023 20:32 23,0 C 0,0 C -0,1 C 43 % 87 % 1018 hPa 0,0 l/m 3,1 km/h (1 Bft)
25.02.2023 20:35 23,0 C 0,0 C 0,1 C 43 % 87 % 1018 hPa 0,0 l/m 5,7 km/h (1 Bft)
25.02.2023 20:38 23,0 C 0,0 C 0,2 C 43 % 87 % 1018 hPa 0,0 l/m 3,8 km/h (1 Bft)
25.02.2023 20:41 23,0 C 0,1 C 0,2 C 43 % 87 % 1018 hPa 0,0 l/m 4,5 km/h (1 Bft)
25.02.2023 20:44 23,0 C 0,1 C 0,0 C 43 % 87 % 1018 hPa 0,0 l/m 5,2 km/h (1 Bft)
25.02.2023 20:47 23,0 C 0,1 C 0,3 C 43 % 87 % 1018 hPa 0,0 l/m 5,6 km/h (1 Bft)
25.02.2023 20:50 23,0 C 0,1 C 0,3 C 43 % 87 % 1018 hPa 0,0 l/m 5,0 km/h (1 Bft)
25.02.2023 20:53 23,0 C 0,1 C 0,1 C 43 % 87 % 1018 hPa 0,0 l/m 5,8 km/h (2 Bft)
25.02.2023 20:56 23,0 C 0,1 C 0,2 C 43 % 87 % 1018 hPa 0,0 l/m 6,1 km/h (2 Bft)
25.02.2023 20:59 23,0 C 0,2 C 0,2 C 43 % 87 % 1018 hPa 0,0 l/m 9,4 km/h (2 Bft)
25.02.2023 21:02 23,0 C 0,2 C 0,2 C 43 % 87 % 1018 hPa 0,0 l/m 6,7 km/h (2 Bft)
25.02.2023 21:05 23,0 C 0,2 C 0,0 C 43 % 87 % 1018 hPa 0,0 l/m 5,9 km/h (2 Bft)
25.02.2023 21:08 23,0 C 0,2 C -0,1 C 43 % 87 % 1018 hPa 0,0 l/m 7,2 km/h (2 Bft)
25.02.2023 21:11 23,0 C 0,2 C 0,0 C 43 % 87 % 1018 hPa 0,0 l/m 7,1 km/h (2 Bft)
25.02.2023 21:14 23,0 C 0,3 C 0,1 C 43 % 87 % 1018 hPa 0,0 l/m 7,6 km/h (2 Bft)
25.02.2023 21:17 23,0 C 0,3 C 0,1 C 43 % 87 % 1018 hPa 0,0 l/m 6,4 km/h (2 Bft)
25.02.2023 21:20 23,0 C 0,3 C 0,1 C 43 % 87 % 1018 hPa 0,0 l/m 7,4 km/h (2 Bft)
25.02.2023 21:23 23,0 C 0,3 C 0,0 C 43 % 87 % 1018 hPa 0,0 l/m 4,5 km/h (1 Bft)
25.02.2023 21:26 23,0 C 0,2 C 0,2 C 43 % 87 % 1018 hPa 0,0 l/m 6,5 km/h (2 Bft)
25.02.2023 21:29 23,0 C 0,2 C 0,2 C 43 % 87 % 1018 hPa 0,0 l/m 5,2 km/h (1 Bft)
25.02.2023 21:32 23,0 C 0,2 C 0,1 C 43 % 87 % 1018 hPa 0,0 l/m 4,1 km/h (1 Bft)
25.02.2023 21:35 23,0 C 0,1 C 0,2 C 43 % 87 % 1018 hPa 0,0 l/m 2,8 km/h (1 Bft)
25.02.2023 21:38 23,0 C 0,2 C 0,1 C 43 % 87 % 1018 hPa 0,0 l/m 5,7 km/h (1 Bft)
25.02.2023 21:41 23,0 C 0,1 C 0,0 C 43 % 87 % 1018 hPa 0,0 l/m 4,0 km/h (1 Bft)
25.02.2023 21:44 23,0 C 0,1 C 0,2 C 43 % 87 % 1018 hPa 0,0 l/m 4,8 km/h (1 Bft)
25.02.2023 21:47 23,0 C 0,1 C 0,1 C 43 % 87 % 1018 hPa 0,0 l/m 4,8 km/h (1 Bft)
25.02.2023 21:50 23,0 C 0,2 C 0,1 C 43 % 87 % 1018 hPa 0,0 l/m 4,9 km/h (1 Bft)
25.02.2023 21:53 23,0 C 0,1 C 0,3 C 43 % 87 % 1018 hPa 0,0 l/m 2,3 km/h (1 Bft)
25.02.2023 21:56 23,0 C 0,1 C 0,2 C 43 % 87 % 1018 hPa 0,0 l/m 0,6 km/h (0 Bft)
25.02.2023 21:59 23,0 C 0,1 C 0,2 C 43 % 87 % 1018 hPa 0,0 l/m 0,6 km/h (0 Bft)
25.02.2023 22:02 23,0 C 0,1 C 0,3 C 43 % 87 % 1018 hPa 0,0 l/m 0,1 km/h (0 Bft)
25.02.2023 22:05 23,0 C 0,1 C 0,3 C 43 % 87 % 1018 hPa 0,0 l/m 0,4 km/h (0 Bft)
25.02.2023 22:08 23,0 C 0,1 C 0,2 C 43 % 87 % 1018 hPa 0,0 l/m 0,4 km/h (0 Bft)
25.02.2023 22:11 23,0 C 0,1 C 0,3 C 43 % 87 % 1018 hPa 0,0 l/m 3,1 km/h (1 Bft)
25.02.2023 22:14 23,0 C 0,1 C 0,2 C 43 % 87 % 1018 hPa 0,0 l/m 3,1 km/h (1 Bft)
25.02.2023 22:17 23,0 C 0,1 C 0,1 C 43 % 87 % 1018 hPa 0,0 l/m 5,2 km/h (1 Bft)
25.02.2023 22:20 23,0 C 0,1 C 0,1 C 43 % 87 % 1018 hPa 0,0 l/m 5,9 km/h (2 Bft)
25.02.2023 22:23 23,0 C 0,1 C 0,1 C 43 % 87 % 1018 hPa 0,0 l/m 2,1 km/h (1 Bft)
25.02.2023 22:26 23,0 C 0,1 C 0,2 C 43 % 87 % 1018 hPa 0,0 l/m 3,6 km/h (1 Bft)
25.02.2023 22:29 23,0 C 0,1 C 0,2 C 43 % 87 % 1018 hPa 0,0 l/m 3,9 km/h (1 Bft)
25.02.2023 22:32 23,0 C 0,1 C 0,2 C 43 % 87 % 1018 hPa 0,0 l/m 4,2 km/h (1 Bft)
25.02.2023 22:35 23,0 C 0,1 C 0,2 C 43 % 87 % 1018 hPa 0,0 l/m 4,7 km/h (1 Bft)
25.02.2023 22:38 23,0 C 0,1 C 0,2 C 43 % 87 % 1018 hPa 0,0 l/m 3,0 km/h (1 Bft)
25.02.2023 22:41 23,0 C 0,1 C 0,2 C 43 % 87 % 1018 hPa 0,0 l/m 3,0 km/h (1 Bft)
25.02.2023 22:44 23,0 C 0,1 C 0,2 C 43 % 87 % 1018 hPa 0,0 l/m 2,7 km/h (1 Bft)
25.02.2023 22:47 23,0 C 0,1 C 0,2 C 43 % 87 % 1018 hPa 0,0 l/m 4,4 km/h (1 Bft)
25.02.2023 22:50 23,0 C 0,0 C 0,2 C 43 % 87 % 1018 hPa 0,0 l/m 3,3 km/h (1 Bft)
25.02.2023 22:53 23,0 C 0,0 C 0,1 C 43 % 87 % 1018 hPa 0,0 l/m 6,0 km/h (2 Bft)
25.02.2023 22:56 23,0 C 0,1 C 0,1 C 43 % 87 % 1018 hPa 0,0 l/m 6,3 km/h (2 Bft)
25.02.2023 22:59 23,0 C 0,1 C 0,1 C 43 % 87 % 1018 hPa 0,0 l/m 8,5 km/h (2 Bft)
25.02.2023 23:02 23,0 C 0,1 C 0,1 C 43 % 87 % 1018 hPa 0,0 l/m 6,1 km/h (2 Bft)
25.02.2023 23:05 23,0 C 0,0 C 0,1 C 43 % 87 % 1018 hPa 0,0 l/m 6,3 km/h (2 Bft)
25.02.2023 23:08 23,0 C 0,1 C 0,1 C 43 % 87 % 1018 hPa 0,0 l/m 6,1 km/h (2 Bft)
25.02.2023 23:11 23,0 C 0,0 C 0,1 C 43 % 87 % 1018 hPa 0,0 l/m 7,9 km/h (2 Bft)
25.02.2023 23:14 23,0 C 0,0 C 0,1 C 43 % 87 % 1018 hPa 0,0 l/m 10,6 km/h (2 Bft)
25.02.2023 23:17 23,0 C 0,0 C 0,1 C 43 % 87 % 1018 hPa 0,0 l/m 10,6 km/h (2 Bft)
25.02.2023 23:20 23,0 C -0,2 C 0,1 C 43 % 86 % 1018 hPa 0,0 l/m 5,0 km/h (1 Bft)
25.02.2023 23:23 23,0 C -0,2 C 0,1 C 43 % 86 % 1018 hPa 0,0 l/m 5,9 km/h (2 Bft)
25.02.2023 23:26 23,0 C -0,2 C 0,1 C 43 % 86 % 1018 hPa 0,0 l/m 6,0 km/h (2 Bft)
25.02.2023 23:29 23,0 C -0,3 C 0,1 C 43 % 86 % 1018 hPa 0,0 l/m 6,3 km/h (2 Bft)
25.02.2023 23:32 23,0 C -0,3 C 0,0 C 43 % 86 % 1018 hPa 0,0 l/m 7,2 km/h (2 Bft)
25.02.2023 23:35 23,0 C -0,4 C 0,0 C 43 % 86 % 1018 hPa 0,0 l/m 5,9 km/h (2 Bft)
25.02.2023 23:38 23,0 C -0,4 C 0,0 C 43 % 86 % 1018 hPa 0,0 l/m 5,9 km/h (2 Bft)
25.02.2023 23:41 23,0 C -0,4 C 0,0 C 43 % 87 % 1018 hPa 0,0 l/m 8,1 km/h (2 Bft)
25.02.2023 23:44 23,0 C -0,5 C 0,0 C 43 % 87 % 1018 hPa 0,0 l/m 7,0 km/h (2 Bft)
25.02.2023 23:47 23,0 C -0,6 C 0,0 C 43 % 87 % 1018 hPa 0,0 l/m 6,3 km/h (2 Bft)
25.02.2023 23:50 23,0 C -0,6 C 0,0 C 43 % 87 % 1018 hPa 0,0 l/m 5,0 km/h (1 Bft)
25.02.2023 23:53 23,0 C -0,6 C 0,0 C 43 % 87 % 1018 hPa 0,0 l/m 7,6 km/h (2 Bft)
25.02.2023 23:56 23,0 C -0,6 C -0,1 C 43 % 87 % 1018 hPa 0,0 l/m 6,3 km/h (2 Bft)
25.02.2023 23:59 23,0 C -0,7 C 0,0 C 43 % 87 % 1018 hPa 0,0 l/m 4,8 km/h (1 Bft)
_ Min-Zeit 00:02 23:59 07:26 00:02 14:53 00:02 - 20:23
Minimum _ 23,0 C -0,7 C -0,8 C 43 % 57 % 1018 hPa - 0,0 km/h (0 Bft)
_ Max-Zeit 00:02 12:32 00:02 00:02 03:49 00:02 00:02 11:29
Maximum _ 23,0 C 6,9 C 3,1 C 43 % 87 % 1018 hPa 0,3 l/m 35,9 km/h
N (5 Bft)
Durchschnitt _ 23,0 C 2,7 C 0,5 C 43 % 79 % 1018 hPa #5,8 l/m 15,0 km/h (3 Bft)